Flag for Canada Weather past 2 weeks in Halifax, Nova Scotia, Canada

Now
68 °F

Sunny.


Feels Like: 68 °F
Forecast: 62 / 68 °F
Wind: 13 mph from Southwest

Location: Halifax International Airport

Current Time: Jul 23, 2014 at 10:04:28 PM

Latest Report: Jul 23, 2014 at 9:00 PM


Visibility: 12 mi

Pressure: 29.80 "Hg

Humidity: 83%

Dew point: 63 °F

Location of HalifaxLocation

Historic Weather in Halifax — Graph

°F

Halifax temperature yesterday

Maximum temperature yesterday: 77 °F (at 1:00 PM)
Minimum temperature yesterday: 57 °F (at 6:00 AM)
Average temperature yesterday: 63 °F

Past Weeks' High & Low Weather Summary

 TemperatureHumidityPressure
High82 °F (Jul 12, 3:00 PM)100% (Jul 9, 4:00 AM)30.28 "Hg (Jul 9, 4:00 AM)
Low57 °F (Jul 13, 6:00 AM)32% (Jul 12, 4:00 PM)29.78 "Hg (Jul 23, 6:00 PM)
Average67 °F79%30.06 "Hg
* Reported Jul 8 9:00 PM — Jul 23 9:00 PM, Halifax, Weather by CustomWeather, © 2014

Note: Actual official high and low records may vary slightly from our data, if they occured in-between our weather recording intervals... More about our weather records

Advertising

Halifax weather history for previous 24 hours

 ConditionsComfort  
Time TempWeatherWind HumidityBarometerVisibility
9:00 PM
Jul 23
68 °FSunny.13 mph83%29.80 "Hg12 mi
8:00 PM72 °FSunny.14 mph78%29.79 "Hg12 mi
7:00 PM75 °FSunny.12 mph74%29.78 "Hg12 mi
6:00 PM77 °FSunny.15 mph69%29.78 "Hg15 mi
5:00 PM79 °FSunny.18 mph65%29.80 "Hg15 mi
4:00 PM81 °FPassing clouds.18 mph66%29.81 "Hg12 mi
3:00 PM81 °FPassing clouds.17 mph66%29.83 "Hg12 mi
2:00 PM79 °FPartly sunny.20 mph70%29.84 "Hg15 mi
1:00 PM77 °FPartly sunny.16 mph69%29.86 "Hg15 mi
12:00 PM77 °FPartly sunny.15 mph65%29.87 "Hg15 mi
11:00 AM75 °FPartly sunny.18 mph65%29.90 "Hg15 mi
10:00 AM72 °FPartly sunny.14 mph73%29.91 "Hg15 mi
6:00 AM59 °FHigh level clouds.9 mph88%29.94 "Hg15 mi
5:00 AM61 °FPassing clouds.8 mph83%29.94 "Hg15 mi
3:00 AM63 °FPassing clouds.14 mph83%29.95 "Hg15 mi
2:00 AM63 °FPassing clouds.7 mph88%29.98 "Hg15 mi
1:00 AM64 °FPassing clouds.6 mph83%30.01 "Hg15 mi
12:00 AM68 °FPassing clouds.10 mph73%30.01 "Hg15 mi
11:00 PM
Jul 22
64 °FPassing clouds.7 mph83%30.00 "Hg15 mi
10:00 PM64 °FPassing clouds.6 mph78%30.00 "Hg15 mi
Weather by CustomWeather, © 2014

See weather overviewHow to use our weather pages